Location: Cronhütte
(48.9135°N, 9.6869°E)
Time: 17:03:45
(UTC+00:00)

Meteor 2-15 Rocket - Visible Passes

Search period start: 07 October 2024 00:00
Search period end: 17 October 2024 00:00
Orbit: 938 x 956 km, 82.5° (Epoch: 06 October)

Date Brightness Start Highest point End Pass type
(mag) Time Alt. Az. Time Alt. Az. Time Alt. Az.
07 Oct 6.6 00:12:15 10° N 00:14:25 19° NNE 00:14:25 19° NNE visible
07 Oct 6.3 01:56:45 10° NNW 01:58:26 19° NNW 01:58:26 19° NNW visible
08 Oct 6.6 00:28:55 10° N 00:30:50 20° N 00:30:50 20° N visible
08 Oct 6.5 02:13:58 10° NNW 02:14:52 14° NNW 02:14:52 14° NNW visible
08 Oct 7.2 23:03:13 10° NNE 23:03:16 10° NNE 23:03:16 10° NNE visible
09 Oct 6.6 00:45:44 10° N 00:47:18 19° N 00:47:18 19° N visible
09 Oct 7.1 23:19:00 10° NNE 23:19:45 12° NNE 23:19:45 12° NNE visible
10 Oct 6.7 01:02:39 10° N 01:03:47 16° N 01:03:47 16° N visible
10 Oct 7.0 23:35:22 10° N 23:36:16 13° NNE 23:36:16 13° NNE visible
11 Oct 6.8 01:19:41 10° NNW 01:20:18 13° NNW 01:20:18 13° NNW visible
11 Oct 7.0 23:52:01 10° N 23:52:49 14° N 23:52:49 14° N visible
13 Oct 7.0 00:08:46 10° N 00:09:23 13° N 00:09:23 13° N visible
14 Oct 7.1 00:25:40 10° N 00:25:58 12° N 00:25:58 12° N visible
15 Oct 7.3 23:15:06 10° N 23:15:08 10° N 23:15:08 10° N visible
